Time,TemperatureF,DewpointF,PressureIn,WindDirection,WindDirectionDegrees,WindSpeedMPH,WindSpeedGustMPH,Humidity,HourlyPrecipIn,Conditions,Clouds,dailyrainin,SoftwareType,DateUTC
2013-11-04 00:02:00,41.1,38.1,30.10,SE,142,0.0,0.0,89,0.00,,,0.00,WUHU216DAVISVP2,2013-11-04 08:02:00,
2013-11-04 00:07:00,41.1,38.3,30.10,SE,142,0.0,0.0,90,0.00,,,0.00,WUHU216DAVISVP2,2013-11-04 08:07:00,
2013-11-04 00:12:00,41.1,38.3,30.10,SE,142,0.0,0.0,90,0.00,,,0.00,WUHU216DAVISVP2,2013-11-04 08:12:00,
2013-11-04 00:17:00,41.0,38.0,30.10,SE,142,0.0,0.0,89,0.00,,,0.00,WUHU216DAVISVP2,2013-11-04 08:17:00,
2013-11-04 00:21:00,41.0,38.2,30.10,SE,142,0.0,0.0,90,0.00,,,0.00,WUHU216DAVISVP2,2013-11-04 08:21:00,
2013-11-04 00:27:00,41.0,38.2,30.10,SE,142,0.0,0.0,90,0.00,,,0.00,WUHU216DAVISVP2,2013-11-04 08:27:00,
2013-11-04 00:31:00,41.0,38.2,30.10,SE,142,0.0,0.0,90,0.00,,,0.00,WUHU216DAVISVP2,2013-11-04 08:31:00,
2013-11-04 00:37:00,41.0,39.6,30.10,SE,142,0.0,0.0,95,0.00,,,0.00,WUHU216DAVISVP2,2013-11-04 08:37:00,
2013-11-04 00:41:00,41.0,38.2,30.10,SE,142,0.0,0.0,90,0.00,,,0.00,WUHU216DAVISVP2,2013-11-04 08:41:00,
2013-11-04 00:47:00,41.0,38.2,30.10,SE,142,0.0,0.0,90,0.00,,,0.00,WUHU216DAVISVP2,2013-11-04 08:47:00,
2013-11-04 00:52:00,40.9,38.2,30.10,SE,142,0.0,0.0,90,0.00,,,0.00,WUHU216DAVISVP2,2013-11-04 08:52:00,
2013-11-04 00:56:00,40.9,38.2,30.10,SE,142,0.0,0.0,90,0.00,,,0.00,WUHU216DAVISVP2,2013-11-04 08:56:00,
2013-11-04 01:01:00,40.9,38.2,30.10,SE,142,0.0,0.0,90,0.00,,,0.00,WUHU216DAVISVP2,2013-11-04 09:01:00,
2013-11-04 01:06:00,40.9,38.2,30.10,SE,142,0.0,0.0,90,0.00,,,0.00,WUHU216DAVISVP2,2013-11-04 09:06:00,
2013-11-04 01:12:00,40.8,38.1,30.10,SE,142,0.0,0.0,90,0.00,,,0.00,WUHU216DAVISVP2,2013-11-04 09:12:00,
2013-11-04 01:17:00,40.7,38.0,30.10,SE,142,0.0,0.0,90,0.00,,,0.00,WUHU216DAVISVP2,2013-11-04 09:17:00,
2013-11-04 01:22:00,40.7,38.0,30.10,SE,142,0.0,0.0,90,0.00,,,0.00,WUHU216DAVISVP2,2013-11-04 09:22:00,
2013-11-04 01:27:00,40.7,38.0,30.10,SE,142,0.0,0.0,90,0.00,,,0.00,WUHU216DAVISVP2,2013-11-04 09:27:00,
2013-11-04 01:31:00,40.6,37.6,30.10,SE,142,0.0,0.0,89,0.00,,,0.00,WUHU216DAVISVP2,2013-11-04 09:31:00,
2013-11-04 01:37:00,40.6,37.6,30.10,SE,142,0.0,0.0,89,0.00,,,0.00,WUHU216DAVISVP2,2013-11-04 09:37:00,
2013-11-04 01:41:00,40.6,37.6,30.10,SE,142,0.0,0.0,89,0.00,,,0.00,WUHU216DAVISVP2,2013-11-04 09:41:00,
2013-11-04 01:47:00,40.6,37.9,30.10,SE,142,0.0,0.0,90,0.00,,,0.00,WUHU216DAVISVP2,2013-11-04 09:47:00,
2013-11-04 01:52:00,40.6,37.9,30.11,SE,142,0.0,0.0,90,0.00,,,0.00,WUHU216DAVISVP2,2013-11-04 09:52:00,
2013-11-04 01:57:00,40.5,37.5,30.11,SE,142,0.0,0.0,89,0.00,,,0.00,WUHU216DAVISVP2,2013-11-04 09:57:00,
2013-11-04 02:01:00,40.5,37.5,30.11,SE,142,0.0,0.0,89,0.00,,,0.00,WUHU216DAVISVP2,2013-11-04 10:01:00,
2013-11-04 02:07:00,40.4,37.4,30.11,SE,142,0.0,0.0,89,0.00,,,0.00,WUHU216DAVISVP2,2013-11-04 10:07:00,
2013-11-04 02:12:00,40.4,37.4,30.11,SE,142,0.0,0.0,89,0.00,,,0.00,WUHU216DAVISVP2,2013-11-04 10:12:00,
2013-11-04 02:17:00,40.3,37.3,30.11,SE,142,0.0,0.0,89,0.00,,,0.00,WUHU216DAVISVP2,2013-11-04 10:17:00,
2013-11-04 02:22:00,40.2,37.2,30.11,SE,142,0.0,0.0,89,0.00,,,0.00,WUHU216DAVISVP2,2013-11-04 10:22:00,
2013-11-04 02:27:00,40.1,37.1,30.11,SE,142,0.0,0.0,89,0.00,,,0.00,WUHU216DAVISVP2,2013-11-04 10:27:00,
2013-11-04 02:32:00,40.0,37.0,30.11,SE,142,0.0,0.0,89,0.00,,,0.00,WUHU216DAVISVP2,2013-11-04 10:32:00,
2013-11-04 02:37:00,39.8,36.8,30.11,SE,142,0.0,0.0,89,0.00,,,0.00,WUHU216DAVISVP2,2013-11-04 10:37:00,
2013-11-04 02:42:00,39.6,36.6,30.11,SE,142,0.0,0.0,89,0.00,,,0.00,WUHU216DAVISVP2,2013-11-04 10:42:00,
2013-11-04 02:47:00,39.4,36.4,30.11,SE,142,0.0,0.0,89,0.00,,,0.00,WUHU216DAVISVP2,2013-11-04 10:47:00,
2013-11-04 02:52:00,39.1,36.4,30.10,SE,142,0.0,0.0,90,0.00,,,0.00,WUHU216DAVISVP2,2013-11-04 10:52:00,
2013-11-04 02:57:00,38.9,36.2,30.10,SE,142,0.0,0.0,90,0.00,,,0.00,WUHU216DAVISVP2,2013-11-04 10:57:00,
2013-11-04 03:02:00,38.7,36.0,30.10,SE,142,0.0,0.0,90,0.00,,,0.00,WUHU216DAVISVP2,2013-11-04 11:02:00,
2013-11-04 03:07:00,38.5,36.1,30.11,SE,142,0.0,0.0,91,0.00,,,0.00,WUHU216DAVISVP2,2013-11-04 11:07:00,
2013-11-04 03:12:00,38.3,35.9,30.11,SE,142,0.0,0.0,91,0.00,,,0.00,WUHU216DAVISVP2,2013-11-04 11:12:00,
2013-11-04 03:14:00,38.3,36.1,30.11,SE,142,0.0,0.0,92,0.00,,,0.00,WUHU216DAVISVP2,2013-11-04 11:14:00,
2013-11-04 03:19:00,38.2,36.0,30.11,SE,142,0.0,0.0,92,0.00,,,0.00,WUHU216DAVISVP2,2013-11-04 11:19:00,
2013-11-04 03:22:00,38.2,36.0,30.11,ENE,78,0.0,0.0,92,0.00,,,0.00,WUHU216DAVISVP2,2013-11-04 11:22:00,
2013-11-04 03:27:00,38.2,36.0,30.10,ENE,78,0.0,0.0,92,0.00,,,0.00,WUHU216DAVISVP2,2013-11-04 11:27:00,
2013-11-04 03:32:00,38.1,35.9,30.10,ENE,78,0.0,0.0,92,0.00,,,0.00,WUHU216DAVISVP2,2013-11-04 11:32:00,
2013-11-04 03:37:00,38.0,35.8,30.10,ENE,78,0.0,0.0,92,0.00,,,0.00,WUHU216DAVISVP2,2013-11-04 11:37:00,
2013-11-04 03:42:00,37.9,35.7,30.11,ENE,78,0.0,0.0,92,0.00,,,0.00,WUHU216DAVISVP2,2013-11-04 11:42:00,
2013-11-04 03:47:00,37.8,35.6,30.11,ENE,78,0.0,0.0,92,0.00,,,0.00,WUHU216DAVISVP2,2013-11-04 11:47:00,
2013-11-04 03:52:00,37.7,35.5,30.11,ENE,78,0.0,0.0,92,0.00,,,0.00,WUHU216DAVISVP2,2013-11-04 11:52:00,
2013-11-04 03:57:00,37.7,35.5,30.11,ENE,78,0.0,1.0,92,0.00,,,0.00,WUHU216DAVISVP2,2013-11-04 11:57:00,
2013-11-04 04:02:00,37.7,35.5,30.11,ENE,78,0.0,1.0,92,0.00,,,0.00,WUHU216DAVISVP2,2013-11-04 12:02:00,
2013-11-04 04:07:00,37.7,35.6,30.11,ENE,78,0.0,1.0,92,0.00,,,0.00,WUHU216DAVISVP2,2013-11-04 12:07:00,
2013-11-04 04:12:00,37.7,35.6,30.11,ESE,115,0.0,1.0,92,0.00,,,0.00,WUHU216DAVISVP2,2013-11-04 12:12:00,
2013-11-04 04:17:00,37.7,35.6,30.11,ESE,113,0.0,0.0,92,0.00,,,0.00,WUHU216DAVISVP2,2013-11-04 12:17:00,
2013-11-04 04:22:00,37.7,35.5,30.12,ESE,112,0.0,0.0,92,0.00,,,0.00,WUHU216DAVISVP2,2013-11-04 12:22:00,
2013-11-04 04:27:00,37.7,35.5,30.12,East,90,0.0,0.0,92,0.00,,,0.00,WUHU216DAVISVP2,2013-11-04 12:27:00,
2013-11-04 04:32:00,37.7,35.5,30.12,East,90,0.0,0.0,92,0.00,,,0.00,WUHU216DAVISVP2,2013-11-04 12:32:00,
2013-11-04 04:37:00,37.6,35.4,30.12,East,90,0.0,0.0,92,0.00,,,0.00,WUHU216DAVISVP2,2013-11-04 12:37:00,
2013-11-04 04:42:00,37.5,35.3,30.12,East,90,0.0,0.0,92,0.00,,,0.00,WUHU216DAVISVP2,2013-11-04 12:42:00,
2013-11-04 04:47:00,37.4,35.3,30.13,East,90,0.0,0.0,92,0.00,,,0.00,WUHU216DAVISVP2,2013-11-04 12:47:00,
2013-11-04 04:52:00,37.3,35.2,30.13,East,80,1.0,1.0,92,0.00,,,0.00,WUHU216DAVISVP2,2013-11-04 12:52:00,
2013-11-04 04:57:00,37.3,35.1,30.12,ENE,66,2.0,2.0,92,0.00,,,0.00,WUHU216DAVISVP2,2013-11-04 12:57:00,
2013-11-04 05:02:00,37.4,35.2,30.13,ENE,76,0.0,2.0,92,0.00,,,0.00,WUHU216DAVISVP2,2013-11-04 13:02:00,
2013-11-04 05:07:00,37.4,35.2,30.13,ENE,73,0.0,2.0,92,0.00,,,0.00,WUHU216DAVISVP2,2013-11-04 13:07:00,
2013-11-04 05:12:00,37.3,35.1,30.12,ENE,73,0.0,1.0,92,0.00,,,0.00,WUHU216DAVISVP2,2013-11-04 13:12:00,
2013-11-04 05:17:00,37.1,34.7,30.13,ENE,73,0.0,0.0,91,0.00,,,0.00,WUHU216DAVISVP2,2013-11-04 13:17:00,
2013-11-04 05:22:00,37.0,34.6,30.13,ENE,73,0.0,0.0,91,0.00,,,0.00,WUHU216DAVISVP2,2013-11-04 13:22:00,
2013-11-04 05:27:00,36.7,34.3,30.13,ENE,73,0.0,0.0,91,0.00,,,0.00,WUHU216DAVISVP2,2013-11-04 13:27:00,
2013-11-04 05:32:00,36.5,34.1,30.13,ENE,73,0.0,0.0,91,0.00,,,0.00,WUHU216DAVISVP2,2013-11-04 13:32:00,
2013-11-04 05:37:00,36.2,34.1,30.13,ENE,73,0.0,0.0,92,0.00,,,0.00,WUHU216DAVISVP2,2013-11-04 13:37:00,
2013-11-04 05:42:00,36.0,33.9,30.14,ENE,73,0.0,0.0,92,0.00,,,0.00,WUHU216DAVISVP2,2013-11-04 13:42:00,
2013-11-04 05:47:00,35.8,33.7,30.14,ENE,73,0.0,0.0,92,0.00,,,0.00,WUHU216DAVISVP2,2013-11-04 13:47:00,
2013-11-04 05:52:00,35.6,33.5,30.14,ENE,73,0.0,0.0,92,0.00,,,0.00,WUHU216DAVISVP2,2013-11-04 13:52:00,
2013-11-04 05:57:00,35.5,33.6,30.14,ENE,73,0.0,0.0,93,0.00,,,0.00,WUHU216DAVISVP2,2013-11-04 13:57:00,
2013-11-04 06:02:00,35.4,33.5,30.14,ENE,73,0.0,1.0,93,0.00,,,0.00,WUHU216DAVISVP2,2013-11-04 14:02:00,
2013-11-04 06:07:00,35.3,33.5,30.14,ENE,78,0.0,1.0,93,0.00,,,0.00,WUHU216DAVISVP2,2013-11-04 14:07:00,
2013-11-04 06:12:00,35.3,33.7,30.14,ENE,71,0.0,2.0,94,0.00,,,0.00,WUHU216DAVISVP2,2013-11-04 14:12:00,
2013-11-04 06:17:00,35.3,33.7,30.14,ENE,71,0.0,2.0,94,0.00,,,0.00,WUHU216DAVISVP2,2013-11-04 14:17:00,
2013-11-04 06:22:00,35.4,33.8,30.14,ENE,71,0.0,1.0,94,0.00,,,0.00,WUHU216DAVISVP2,2013-11-04 14:22:00,
2013-11-04 06:27:00,35.5,33.9,30.14,ENE,71,0.0,1.0,94,0.00,,,0.00,WUHU216DAVISVP2,2013-11-04 14:27:00,
2013-11-04 06:32:00,35.5,33.9,30.14,ENE,74,0.0,1.0,94,0.00,,,0.00,WUHU216DAVISVP2,2013-11-04 14:32:00,
2013-11-04 06:37:00,35.6,34.0,30.14,ENE,74,0.0,1.0,94,0.00,,,0.00,WUHU216DAVISVP2,2013-11-04 14:37:00,
2013-11-04 06:42:00,35.6,34.0,30.14,ENE,74,0.0,1.0,94,0.00,,,0.00,WUHU216DAVISVP2,2013-11-04 14:42:00,
2013-11-04 06:47:00,35.6,34.0,30.14,ENE,74,0.0,1.0,94,0.00,,,0.00,WUHU216DAVISVP2,2013-11-04 14:47:00,
2013-11-04 06:52:00,35.7,33.8,30.14,East,83,1.0,1.0,93,0.00,,,0.00,WUHU216DAVISVP2,2013-11-04 14:52:00,
2013-11-04 06:57:00,35.8,33.9,30.14,East,79,2.0,2.0,93,0.00,,,0.00,WUHU216DAVISVP2,2013-11-04 14:57:00,
2013-11-04 07:02:00,35.9,34.0,30.14,ENE,75,2.0,3.0,93,0.00,,,0.00,WUHU216DAVISVP2,2013-11-04 15:02:00,
2013-11-04 07:07:00,35.9,33.8,30.14,ENE,78,2.0,3.0,92,0.00,,,0.00,WUHU216DAVISVP2,2013-11-04 15:07:00,
2013-11-04 07:12:00,35.9,33.8,30.14,ENE,71,2.0,3.0,92,0.00,,,0.00,WUHU216DAVISVP2,2013-11-04 15:12:00,
2013-11-04 07:17:00,35.9,33.8,30.14,ENE,70,0.0,3.0,92,0.00,,,0.00,WUHU216DAVISVP2,2013-11-04 15:17:00,
2013-11-04 07:22:00,35.8,33.7,30.14,ENE,66,0.0,2.0,92,0.00,,,0.00,WUHU216DAVISVP2,2013-11-04 15:22:00,
2013-11-04 07:27:00,35.7,33.6,30.14,ENE,75,1.0,2.0,92,0.00,,,0.00,WUHU216DAVISVP2,2013-11-04 15:27:00,
2013-11-04 07:32:00,35.6,33.5,30.14,ENE,63,1.0,3.0,92,0.00,,,0.00,WUHU216DAVISVP2,2013-11-04 15:32:00,
2013-11-04 07:37:00,35.5,33.4,30.14,ENE,74,0.0,3.0,92,0.00,,,0.00,WUHU216DAVISVP2,2013-11-04 15:37:00,
2013-11-04 07:42:00,35.5,33.4,30.14,ENE,74,0.0,2.0,92,0.00,,,0.00,WUHU216DAVISVP2,2013-11-04 15:42:00,
2013-11-04 07:47:00,35.5,33.4,30.15,ENE,74,0.0,2.0,92,0.00,,,0.00,WUHU216DAVISVP2,2013-11-04 15:47:00,
2013-11-04 07:52:00,35.5,33.4,30.15,ENE,74,0.0,2.0,92,0.00,,,0.00,WUHU216DAVISVP2,2013-11-04 15:52:00,
2013-11-04 07:57:00,35.5,33.4,30.15,ENE,75,1.0,1.0,92,0.00,,,0.00,WUHU216DAVISVP2,2013-11-04 15:57:00,
2013-11-04 08:02:00,35.5,33.4,30.15,East,83,0.0,1.0,92,0.00,,,0.00,WUHU216DAVISVP2,2013-11-04 16:02:00,
2013-11-04 08:07:00,35.6,33.5,30.15,East,83,0.0,1.0,92,0.00,,,0.00,WUHU216DAVISVP2,2013-11-04 16:07:00,
2013-11-04 08:12:00,35.6,33.5,30.15,ENE,74,2.0,2.0,92,0.00,,,0.00,WUHU216DAVISVP2,2013-11-04 16:12:00,
2013-11-04 08:17:00,35.9,33.8,30.15,NE,55,2.0,3.0,92,0.00,,,0.00,WUHU216DAVISVP2,2013-11-04 16:17:00,
2013-11-04 08:22:00,36.2,34.1,30.15,East,82,1.0,3.0,92,0.00,,,0.00,WUHU216DAVISVP2,2013-11-04 16:22:00,
2013-11-04 08:27:00,36.5,34.1,30.15,ENE,68,1.0,4.0,91,0.00,,,0.00,WUHU216DAVISVP2,2013-11-04 16:27:00,
2013-11-04 08:32:00,36.7,34.3,30.15,ENE,77,1.0,4.0,91,0.00,,,0.00,WUHU216DAVISVP2,2013-11-04 16:32:00,
2013-11-04 08:37:00,37.0,34.6,30.14,ENE,59,0.0,3.0,91,0.00,,,0.00,WUHU216DAVISVP2,2013-11-04 16:37:00,
2013-11-04 08:42:00,37.1,34.4,30.14,ENE,59,0.0,2.0,90,0.00,,,0.00,WUHU216DAVISVP2,2013-11-04 16:42:00,
2013-11-04 08:47:00,37.3,34.9,30.15,ENE,70,3.0,3.0,91,0.00,,,0.00,WUHU216DAVISVP2,2013-11-04 16:47:00,
2013-11-04 08:52:00,37.6,34.9,30.15,ENE,69,2.0,3.0,90,0.00,,,0.00,WUHU216DAVISVP2,2013-11-04 16:52:00,
2013-11-04 08:57:00,37.9,35.2,30.15,ENE,69,1.0,2.0,90,0.00,,,0.00,WUHU216DAVISVP2,2013-11-04 16:57:00,
2013-11-04 09:02:00,38.2,35.5,30.15,ENE,58,0.0,1.0,90,0.00,,,0.00,WUHU216DAVISVP2,2013-11-04 17:02:00,
2013-11-04 09:07:00,38.5,35.5,30.15,ENE,72,0.0,2.0,89,0.00,,,0.00,WUHU216DAVISVP2,2013-11-04 17:07:00,
2013-11-04 09:12:00,38.7,35.7,30.15,ENE,72,0.0,2.0,89,0.00,,,0.00,WUHU216DAVISVP2,2013-11-04 17:12:00,
2013-11-04 09:17:00,39.0,36.0,30.15,ENE,72,0.0,1.0,89,0.00,,,0.00,WUHU216DAVISVP2,2013-11-04 17:17:00,
2013-11-04 09:22:00,39.3,36.0,30.15,ENE,69,0.0,1.0,88,0.00,,,0.00,WUHU216DAVISVP2,2013-11-04 17:22:00,
2013-11-04 09:27:00,39.6,36.0,30.15,East,84,0.0,1.0,87,0.00,,,0.00,WUHU216DAVISVP2,2013-11-04 17:27:00,
2013-11-04 09:32:00,40.0,36.4,30.15,ENE,67,2.0,2.0,87,0.00,,,0.00,WUHU216DAVISVP2,2013-11-04 17:32:00,
2013-11-04 09:37:00,40.6,36.7,30.15,ENE,65,0.0,2.0,86,0.00,,,0.00,WUHU216DAVISVP2,2013-11-04 17:37:00,
2013-11-04 09:42:00,41.1,37.2,30.15,ENE,65,0.0,2.0,86,0.00,,,0.00,WUHU216DAVISVP2,2013-11-04 17:42:00,
2013-11-04 09:47:00,41.5,37.3,30.15,ENE,65,0.0,0.0,85,0.00,,,0.00,WUHU216DAVISVP2,2013-11-04 17:47:00,
2013-11-04 09:52:00,41.8,37.0,30.15,ENE,65,0.0,1.0,83,0.00,,,0.00,WUHU216DAVISVP2,2013-11-04 17:52:00,
2013-11-04 09:57:00,42.0,36.9,30.15,ENE,74,0.0,2.0,82,0.00,,,0.00,WUHU216DAVISVP2,2013-11-04 17:57:00,
2013-11-04 10:02:00,42.3,36.9,30.15,ENE,74,0.0,2.0,81,0.00,,,0.00,WUHU216DAVISVP2,2013-11-04 18:02:00,
2013-11-04 10:07:00,42.7,37.0,30.16,ENE,74,0.0,1.0,80,0.00,,,0.00,WUHU216DAVISVP2,2013-11-04 18:07:00,
2013-11-04 10:12:00,43.3,36.9,30.15,ENE,74,0.0,1.0,78,0.00,,,0.00,WUHU216DAVISVP2,2013-11-04 18:12:00,
2013-11-04 10:17:00,43.8,37.4,30.16,ENE,74,0.0,0.0,78,0.00,,,0.00,WUHU216DAVISVP2,2013-11-04 18:17:00,
2013-11-04 10:22:00,44.4,38.0,30.16,ENE,74,0.0,0.0,78,0.00,,,0.00,WUHU216DAVISVP2,2013-11-04 18:22:00,
2013-11-04 10:27:00,45.0,37.3,30.16,ENE,77,0.0,0.0,74,0.00,,,0.00,WUHU216DAVISVP2,2013-11-04 18:27:00,
2013-11-04 10:32:00,45.3,36.9,30.16,North,5,0.0,0.0,72,0.00,,,0.00,WUHU216DAVISVP2,2013-11-04 18:32:00,
2013-11-04 10:37:00,45.5,37.4,30.16,SW,228,0.0,1.0,73,0.00,,,0.00,WUHU216DAVISVP2,2013-11-04 18:37:00,
2013-11-04 10:42:00,45.5,38.4,30.16,NNW,336,0.0,1.0,76,0.00,,,0.00,WUHU216DAVISVP2,2013-11-04 18:42:00,
2013-11-04 10:47:00,45.7,37.3,30.16,ENE,60,0.0,1.0,72,0.00,,,0.00,WUHU216DAVISVP2,2013-11-04 18:47:00,
2013-11-04 10:52:00,45.7,36.9,30.16,ENE,62,0.0,1.0,71,0.00,,,0.00,WUHU216DAVISVP2,2013-11-04 18:52:00,
2013-11-04 10:57:00,45.6,37.2,30.16,ENE,62,0.0,1.0,72,0.00,,,0.00,WUHU216DAVISVP2,2013-11-04 18:57:00,
2013-11-04 11:02:00,45.6,36.5,30.15,ENE,62,0.0,1.0,70,0.00,,,0.00,WUHU216DAVISVP2,2013-11-04 19:02:00,
2013-11-04 11:07:00,45.6,36.5,30.15,ENE,62,0.0,1.0,70,0.00,,,0.00,WUHU216DAVISVP2,2013-11-04 19:07:00,
2013-11-04 11:12:00,45.8,36.3,30.15,ENE,62,1.0,1.0,69,0.00,,,0.00,WUHU216DAVISVP2,2013-11-04 19:12:00,
2013-11-04 11:17:00,45.9,35.3,30.15,NE,34,0.0,2.0,66,0.00,,,0.00,WUHU216DAVISVP2,2013-11-04 19:17:00,
2013-11-04 11:22:00,46.1,35.4,30.15,NNE,26,1.0,4.0,66,0.00,,,0.00,WUHU216DAVISVP2,2013-11-04 19:22:00,
2013-11-04 11:27:00,46.3,35.2,30.15,NNW,327,2.0,4.0,65,0.00,,,0.00,WUHU216DAVISVP2,2013-11-04 19:27:00,
2013-11-04 11:32:00,46.4,35.0,30.15,NNW,329,4.0,4.0,64,0.00,,,0.00,WUHU216DAVISVP2,2013-11-04 19:32:00,
2013-11-04 11:37:00,46.4,34.2,30.16,NW,325,1.0,4.0,62,0.00,,,0.00,WUHU216DAVISVP2,2013-11-04 19:37:00,
2013-11-04 11:42:00,46.5,34.3,30.15,NE,34,0.0,4.0,62,0.00,,,0.00,WUHU216DAVISVP2,2013-11-04 19:42:00,
2013-11-04 11:47:00,46.7,34.8,30.15,NE,53,0.0,3.0,63,0.00,,,0.00,WUHU216DAVISVP2,2013-11-04 19:47:00,
2013-11-04 11:52:00,46.8,33.7,30.15,ENE,66,0.0,3.0,60,0.00,,,0.00,WUHU216DAVISVP2,2013-11-04 19:52:00,
2013-11-04 11:57:00,46.9,33.4,30.15,NNW,327,2.0,3.0,59,0.00,,,0.00,WUHU216DAVISVP2,2013-11-04 19:57:00,
2013-11-04 12:02:00,47.0,32.2,30.15,East,82,0.0,3.0,56,0.00,,,0.00,WUHU216DAVISVP2,2013-11-04 20:02:00,
2013-11-04 12:07:00,47.1,33.6,30.15,North,5,0.0,2.0,59,0.00,,,0.00,WUHU216DAVISVP2,2013-11-04 20:07:00,
2013-11-04 12:12:00,47.2,34.5,30.15,North,5,0.0,2.0,61,0.00,,,0.00,WUHU216DAVISVP2,2013-11-04 20:12:00,
2013-11-04 12:17:00,47.5,34.8,30.14,NE,40,1.0,2.0,61,0.00,,,0.00,WUHU216DAVISVP2,2013-11-04 20:17:00,
2013-11-04 12:22:00,47.8,34.6,30.14,NE,36,4.0,4.0,60,0.00,,,0.00,WUHU216DAVISVP2,2013-11-04 20:22:00,
2013-11-04 12:27:00,47.8,33.8,30.14,NE,36,0.0,4.0,58,0.00,,,0.00,WUHU216DAVISVP2,2013-11-04 20:27:00,
2013-11-04 12:32:00,47.9,33.9,30.14,SSE,167,1.0,3.0,58,0.00,,,0.00,WUHU216DAVISVP2,2013-11-04 20:32:00,
2013-11-04 12:37:00,48.1,34.5,30.14,NNE,18,1.0,2.0,59,0.00,,,0.00,WUHU216DAVISVP2,2013-11-04 20:37:00,
2013-11-04 12:41:00,48.3,33.8,30.13,ENE,66,2.0,2.0,57,0.00,,,0.00,WUHU216DAVISVP2,2013-11-04 20:41:00,
2013-11-04 12:46:00,48.4,34.4,30.13,ENE,67,2.0,2.0,58,0.00,,,0.00,WUHU216DAVISVP2,2013-11-04 20:46:00,
2013-11-04 12:51:00,48.5,34.9,30.14,ENE,67,1.0,2.0,59,0.00,,,0.00,WUHU216DAVISVP2,2013-11-04 20:51:00,
2013-11-04 12:56:00,48.6,34.1,30.13,NE,40,0.0,2.0,57,0.00,,,0.00,WUHU216DAVISVP2,2013-11-04 20:56:00,
2013-11-04 13:01:00,48.6,34.1,30.13,NNE,25,1.0,2.0,57,0.00,,,0.00,WUHU216DAVISVP2,2013-11-04 21:01:00,
2013-11-04 13:06:00,48.6,34.0,30.13,West,259,1.0,2.0,57,0.00,,,0.00,WUHU216DAVISVP2,2013-11-04 21:06:00,
2013-11-04 13:11:00,48.6,34.5,30.13,NNW,327,0.0,2.0,58,0.00,,,0.00,WUHU216DAVISVP2,2013-11-04 21:11:00,
2013-11-04 13:16:00,48.6,34.1,30.13,WSW,238,0.0,2.0,57,0.00,,,0.00,WUHU216DAVISVP2,2013-11-04 21:16:00,
2013-11-04 13:21:00,48.6,34.1,30.13,NNW,333,1.0,3.0,57,0.00,,,0.00,WUHU216DAVISVP2,2013-11-04 21:21:00,
2013-11-04 13:26:00,48.5,34.5,30.13,NNW,347,0.0,3.0,58,0.00,,,0.00,WUHU216DAVISVP2,2013-11-04 21:26:00,
2013-11-04 13:31:00,48.5,34.5,30.13,WNW,294,0.0,2.0,58,0.00,,,0.00,WUHU216DAVISVP2,2013-11-04 21:31:00,
2013-11-04 13:36:00,48.5,34.5,30.13,WNW,294,0.0,2.0,58,0.00,,,0.00,WUHU216DAVISVP2,2013-11-04 21:36:00,
2013-11-04 13:41:00,48.5,34.0,30.12,NNW,341,0.0,2.0,57,0.00,,,0.00,WUHU216DAVISVP2,2013-11-04 21:41:00,
2013-11-04 13:46:00,48.5,34.0,30.12,NNW,341,1.0,2.0,57,0.00,,,0.00,WUHU216DAVISVP2,2013-11-04 21:46:00,
2013-11-04 13:51:00,48.5,33.9,30.12,NNW,341,0.0,1.0,57,0.00,,,0.00,WUHU216DAVISVP2,2013-11-04 21:51:00,
2013-11-04 13:56:00,48.5,34.5,30.12,NNW,341,0.0,1.0,58,0.00,,,0.00,WUHU216DAVISVP2,2013-11-04 21:56:00,
2013-11-04 14:01:00,48.6,35.4,30.12,NNW,341,0.0,2.0,60,0.00,,,0.00,WUHU216DAVISVP2,2013-11-04 22:01:00,
2013-11-04 14:06:00,48.6,34.6,30.12,NNW,341,0.0,2.0,58,0.00,,,0.00,WUHU216DAVISVP2,2013-11-04 22:06:00,
2013-11-04 14:11:00,48.5,35.2,30.12,NNW,341,0.0,1.0,60,0.00,,,0.00,WUHU216DAVISVP2,2013-11-04 22:11:00,
2013-11-04 14:16:00,48.4,35.1,30.12,NNW,341,0.0,1.0,60,0.00,,,0.00,WUHU216DAVISVP2,2013-11-04 22:16:00,
2013-11-04 14:21:00,48.3,35.1,30.12,NNW,341,0.0,1.0,60,0.00,,,0.00,WUHU216DAVISVP2,2013-11-04 22:21:00,
2013-11-04 14:26:00,48.3,34.3,30.12,NNW,341,0.0,1.0,58,0.00,,,0.00,WUHU216DAVISVP2,2013-11-04 22:26:00,
2013-11-04 14:31:00,48.2,34.6,30.11,NNW,341,1.0,2.0,59,0.00,,,0.00,WUHU216DAVISVP2,2013-11-04 22:31:00,
2013-11-04 14:36:00,48.1,34.5,30.11,NNW,341,0.0,2.0,59,0.00,,,0.00,WUHU216DAVISVP2,2013-11-04 22:36:00,
2013-11-04 14:41:00,48.1,35.4,30.11,NNW,341,0.0,0.0,61,0.00,,,0.00,WUHU216DAVISVP2,2013-11-04 22:41:00,
2013-11-04 14:46:00,48.1,35.0,30.12,NNW,341,0.0,0.0,60,0.00,,,0.00,WUHU216DAVISVP2,2013-11-04 22:46:00,
2013-11-04 14:51:00,48.1,35.7,30.12,NNW,341,0.0,0.0,62,0.00,,,0.00,WUHU216DAVISVP2,2013-11-04 22:51:00,
2013-11-04 14:56:00,48.0,35.6,30.12,NNW,341,0.0,0.0,62,0.00,,,0.00,WUHU216DAVISVP2,2013-11-04 22:56:00,
2013-11-04 15:01:00,48.0,36.5,30.12,NNW,341,0.0,0.0,64,0.00,,,0.00,WUHU216DAVISVP2,2013-11-04 23:01:00,
2013-11-04 15:06:00,48.0,36.9,30.12,NNW,341,0.0,0.0,65,0.00,,,0.00,WUHU216DAVISVP2,2013-11-04 23:06:00,
2013-11-04 15:11:00,47.9,36.0,30.12,NNW,341,0.0,0.0,63,0.00,,,0.00,WUHU216DAVISVP2,2013-11-04 23:11:00,
2013-11-04 15:16:00,47.9,36.0,30.12,NNW,341,0.0,0.0,63,0.00,,,0.00,WUHU216DAVISVP2,2013-11-04 23:16:00,
2013-11-04 15:21:00,47.9,35.6,30.12,NNW,341,0.0,0.0,62,0.00,,,0.00,WUHU216DAVISVP2,2013-11-04 23:21:00,
2013-11-04 15:26:00,47.8,35.1,30.13,NNW,341,0.0,1.0,61,0.00,,,0.00,WUHU216DAVISVP2,2013-11-04 23:26:00,
2013-11-04 15:31:00,47.8,35.9,30.13,NNW,341,0.0,1.0,63,0.00,,,0.00,WUHU216DAVISVP2,2013-11-04 23:31:00,
2013-11-04 15:36:00,47.7,36.9,30.13,NNW,341,0.0,0.0,66,0.00,,,0.00,WUHU216DAVISVP2,2013-11-04 23:36:00,
2013-11-04 15:41:00,47.7,36.1,30.13,NNW,341,0.0,0.0,64,0.00,,,0.00,WUHU216DAVISVP2,2013-11-04 23:41:00,
2013-11-04 15:46:00,47.6,36.8,30.13,NNW,341,0.0,0.0,66,0.00,,,0.00,WUHU216DAVISVP2,2013-11-04 23:46:00,
2013-11-04 15:51:00,47.5,36.7,30.13,NNW,341,0.0,0.0,66,0.00,,,0.00,WUHU216DAVISVP2,2013-11-04 23:51:00,
2013-11-04 15:56:00,47.4,37.1,30.13,NNW,341,0.0,1.0,67,0.00,,,0.00,WUHU216DAVISVP2,2013-11-04 23:56:00,
2013-11-04 16:01:00,47.2,36.5,30.13,NNW,341,0.0,1.0,66,0.00,,,0.00,WUHU216DAVISVP2,2013-11-05 00:01:00,
2013-11-04 16:06:00,47.1,36.4,30.13,NNW,341,0.0,0.0,66,0.00,,,0.00,WUHU216DAVISVP2,2013-11-05 00:06:00,
2013-11-04 16:11:00,47.0,36.7,30.12,NNW,341,0.0,0.0,67,0.00,,,0.00,WUHU216DAVISVP2,2013-11-05 00:11:00,
2013-11-04 16:16:00,46.9,37.0,30.12,NNW,341,0.0,0.0,68,0.00,,,0.00,WUHU216DAVISVP2,2013-11-05 00:16:00,
2013-11-04 16:21:00,46.8,36.9,30.12,NNW,341,0.0,0.0,68,0.00,,,0.00,WUHU216DAVISVP2,2013-11-05 00:21:00,
2013-11-04 16:26:00,46.7,36.8,30.12,NNW,341,0.0,0.0,68,0.00,,,0.00,WUHU216DAVISVP2,2013-11-05 00:26:00,
2013-11-04 16:31:00,46.6,36.3,30.12,NNW,341,0.0,0.0,67,0.00,,,0.00,WUHU216DAVISVP2,2013-11-05 00:31:00,
2013-11-04 16:36:00,46.5,35.5,30.12,East,96,1.0,1.0,65,0.00,,,0.00,WUHU216DAVISVP2,2013-11-05 00:36:00,
2013-11-04 16:41:00,46.4,36.5,30.12,East,96,0.0,1.0,68,0.00,,,0.00,WUHU216DAVISVP2,2013-11-05 00:41:00,
2013-11-04 16:46:00,46.3,36.4,30.12,East,96,0.0,1.0,68,0.00,,,0.00,WUHU216DAVISVP2,2013-11-05 00:46:00,
2013-11-04 16:52:00,46.1,36.6,30.12,NW,321,0.0,1.0,69,0.00,,,0.00,WUHU216DAVISVP2,2013-11-05 00:52:00,
2013-11-04 16:57:00,46.0,37.2,30.12,NW,321,0.0,0.0,71,0.00,,,0.00,WUHU216DAVISVP2,2013-11-05 00:57:00,
2013-11-04 17:02:00,45.9,37.1,30.12,North,5,0.0,1.0,71,0.00,,,0.00,WUHU216DAVISVP2,2013-11-05 01:02:00,
2013-11-04 17:07:00,45.8,37.4,30.12,North,5,0.0,1.0,72,0.00,,,0.00,WUHU216DAVISVP2,2013-11-05 01:07:00,
2013-11-04 17:12:00,45.7,37.3,30.12,North,5,0.0,0.0,72,0.00,,,0.00,WUHU216DAVISVP2,2013-11-05 01:12:00,
2013-11-04 17:17:00,45.6,37.5,30.12,North,5,0.0,2.0,73,0.00,,,0.00,WUHU216DAVISVP2,2013-11-05 01:17:00,
2013-11-04 17:22:00,45.5,37.4,30.12,North,5,0.0,2.0,73,0.00,,,0.00,WUHU216DAVISVP2,2013-11-05 01:22:00,
2013-11-04 17:27:00,45.5,37.4,30.12,NNE,28,0.0,1.0,73,0.00,,,0.00,WUHU216DAVISVP2,2013-11-05 01:27:00,
2013-11-04 17:32:00,45.5,37.4,30.13,NNE,28,0.0,1.0,73,0.00,,,0.00,WUHU216DAVISVP2,2013-11-05 01:32:00,
2013-11-04 17:37:00,45.4,37.7,30.13,NNE,28,0.0,0.0,74,0.00,,,0.00,WUHU216DAVISVP2,2013-11-05 01:37:00,
2013-11-04 17:42:00,45.3,37.9,30.13,NNE,28,1.0,1.0,75,0.00,,,0.00,WUHU216DAVISVP2,2013-11-05 01:42:00,
2013-11-04 17:47:00,45.2,37.8,30.13,NNE,28,0.0,1.0,75,0.00,,,0.00,WUHU216DAVISVP2,2013-11-05 01:47:00,
2013-11-04 17:52:00,45.1,38.0,30.13,NNE,28,0.0,0.0,76,0.00,,,0.00,WUHU216DAVISVP2,2013-11-05 01:52:00,
2013-11-04 17:57:00,44.9,38.8,30.13,NNE,28,0.0,0.0,79,0.00,,,0.00,WUHU216DAVISVP2,2013-11-05 01:57:00,
2013-11-04 18:04:00,44.8,39.3,30.13,NNE,23,0.0,2.0,81,0.00,,,0.00,WUHU216DAVISVP2,2013-11-05 02:04:00,
2013-11-04 18:09:00,44.6,39.5,30.13,NNE,28,0.0,2.0,82,0.00,,,0.00,WUHU216DAVISVP2,2013-11-05 02:09:00,
2013-11-04 18:14:00,44.4,39.6,30.13,NNE,28,0.0,0.0,83,0.01,,,0.01,WUHU216DAVISVP2,2013-11-05 02:14:00,
2013-11-04 18:19:00,44.3,39.8,30.12,NNE,28,0.0,0.0,84,0.01,,,0.01,WUHU216DAVISVP2,2013-11-05 02:19:00,
2013-11-04 18:24:00,44.1,39.6,30.12,NNE,28,0.0,0.0,84,0.01,,,0.01,WUHU216DAVISVP2,2013-11-05 02:24:00,
2013-11-04 18:29:00,44.1,39.9,30.12,NNE,28,0.0,1.0,85,0.01,,,0.01,WUHU216DAVISVP2,2013-11-05 02:29:00,
2013-11-04 18:34:00,44.0,40.1,30.12,NNE,28,1.0,1.0,86,0.01,,,0.01,WUHU216DAVISVP2,2013-11-05 02:34:00,
2013-11-04 18:39:00,43.9,39.1,30.11,ENE,57,0.0,1.0,83,0.01,,,0.01,WUHU216DAVISVP2,2013-11-05 02:39:00,
2013-11-04 18:44:00,44.0,39.2,30.11,NE,41,2.0,2.0,83,0.01,,,0.01,WUHU216DAVISVP2,2013-11-05 02:44:00,
2013-11-04 18:49:00,44.0,39.2,30.10,NE,40,2.0,3.0,83,0.01,,,0.01,WUHU216DAVISVP2,2013-11-05 02:49:00,
2013-11-04 18:54:00,43.9,39.4,30.11,NNE,33,1.0,3.0,84,0.01,,,0.01,WUHU216DAVISVP2,2013-11-05 02:54:00,
2013-11-04 18:59:00,43.8,39.6,30.10,NNE,32,1.0,3.0,85,0.01,,,0.01,WUHU216DAVISVP2,2013-11-05 02:59:00,
2013-11-04 19:04:00,43.7,39.5,30.09,NE,42,2.0,3.0,85,0.01,,,0.01,WUHU216DAVISVP2,2013-11-05 03:04:00,
2013-11-04 19:09:00,43.6,39.4,30.09,NE,40,2.0,2.0,85,0.01,,,0.01,WUHU216DAVISVP2,2013-11-05 03:09:00,
2013-11-04 19:14:00,43.7,39.5,30.09,NE,40,0.0,2.0,85,0.00,,,0.01,WUHU216DAVISVP2,2013-11-05 03:14:00,
2013-11-04 19:19:00,43.7,39.8,30.09,NE,39,0.0,1.0,86,0.00,,,0.01,WUHU216DAVISVP2,2013-11-05 03:19:00,
2013-11-04 19:24:00,43.6,40.0,30.09,NE,46,0.0,1.0,87,0.00,,,0.01,WUHU216DAVISVP2,2013-11-05 03:24:00,
2013-11-04 19:29:00,43.5,39.9,30.09,NE,46,0.0,1.0,87,0.00,,,0.01,WUHU216DAVISVP2,2013-11-05 03:29:00,
2013-11-04 19:34:00,43.4,40.1,30.08,NE,46,0.0,0.0,88,0.00,,,0.01,WUHU216DAVISVP2,2013-11-05 03:34:00,
2013-11-04 19:39:00,43.3,40.0,30.08,NE,46,0.0,0.0,88,0.00,,,0.01,WUHU216DAVISVP2,2013-11-05 03:39:00,
2013-11-04 19:44:00,43.4,40.1,30.09,NE,46,0.0,0.0,88,0.00,,,0.01,WUHU216DAVISVP2,2013-11-05 03:44:00,
2013-11-04 19:49:00,43.1,40.0,30.09,NE,46,0.0,0.0,89,0.00,,,0.01,WUHU216DAVISVP2,2013-11-05 03:49:00,
2013-11-04 19:54:00,43.0,39.9,30.09,NE,46,0.0,0.0,89,0.00,,,0.01,WUHU216DAVISVP2,2013-11-05 03:54:00,
2013-11-04 19:59:00,42.9,39.9,30.09,NE,46,0.0,0.0,89,0.00,,,0.01,WUHU216DAVISVP2,2013-11-05 03:59:00,
2013-11-04 20:04:00,42.9,39.9,30.09,NE,46,0.0,0.0,89,0.00,,,0.01,WUHU216DAVISVP2,2013-11-05 04:04:00,
2013-11-04 20:09:00,42.9,39.8,30.09,NE,46,0.0,0.0,89,0.00,,,0.01,WUHU216DAVISVP2,2013-11-05 04:09:00,
2013-11-04 20:14:00,42.9,39.8,30.09,NE,46,0.0,0.0,89,0.00,,,0.01,WUHU216DAVISVP2,2013-11-05 04:14:00,
2013-11-04 20:19:00,42.9,39.6,30.09,NE,46,0.0,1.0,88,0.00,,,0.01,WUHU216DAVISVP2,2013-11-05 04:19:00,
2013-11-04 20:24:00,43.1,39.8,30.09,NE,46,0.0,1.0,88,0.00,,,0.01,WUHU216DAVISVP2,2013-11-05 04:24:00,
2013-11-04 20:29:00,43.1,39.5,30.09,NE,46,0.0,1.0,87,0.00,,,0.01,WUHU216DAVISVP2,2013-11-05 04:29:00,
2013-11-04 20:34:00,43.2,39.9,30.09,NE,46,0.0,0.0,88,0.00,,,0.01,WUHU216DAVISVP2,2013-11-05 04:34:00,
2013-11-04 20:39:00,43.3,40.0,30.09,NE,46,0.0,0.0,88,0.00,,,0.01,WUHU216DAVISVP2,2013-11-05 04:39:00,
2013-11-04 20:44:00,43.3,40.0,30.08,NE,46,0.0,1.0,88,0.00,,,0.01,WUHU216DAVISVP2,2013-11-05 04:44:00,
2013-11-04 20:49:00,43.3,40.2,30.08,NE,46,0.0,1.0,89,0.00,,,0.01,WUHU216DAVISVP2,2013-11-05 04:49:00,
2013-11-04 20:54:00,43.2,40.1,30.08,NNE,24,0.0,2.0,89,0.00,,,0.01,WUHU216DAVISVP2,2013-11-05 04:54:00,
2013-11-04 20:59:00,43.1,40.3,30.08,ENE,74,0.0,2.0,90,0.00,,,0.01,WUHU216DAVISVP2,2013-11-05 04:59:00,
2013-11-04 21:01:00,43.1,40.6,30.08,ENE,76,0.0,2.0,91,0.00,,,0.01,WUHU216DAVISVP2,2013-11-05 05:01:00,
2013-11-04 21:06:00,43.0,40.5,30.08,ENE,57,0.0,0.0,91,0.00,,,0.01,WUHU216DAVISVP2,2013-11-05 05:06:00,
2013-11-04 21:11:00,42.9,40.4,30.08,NE,42,0.0,0.0,91,0.00,,,0.01,WUHU216DAVISVP2,2013-11-05 05:11:00,
2013-11-04 21:16:00,43.1,40.6,30.07,ENE,69,6.0,6.0,91,0.00,,,0.01,WUHU216DAVISVP2,2013-11-05 05:16:00,
2013-11-04 21:21:00,43.6,41.1,30.07,East,82,0.0,6.0,91,0.00,,,0.01,WUHU216DAVISVP2,2013-11-05 05:21:00,
2013-11-04 21:26:00,43.7,40.9,30.07,NE,43,3.0,3.0,90,0.00,,,0.01,WUHU216DAVISVP2,2013-11-05 05:26:00,
2013-11-04 21:31:00,44.1,40.7,30.07,NNE,22,0.0,4.0,88,0.00,,,0.01,WUHU216DAVISVP2,2013-11-05 05:31:00,
2013-11-04 21:36:00,44.2,41.1,30.08,WSW,240,0.0,4.0,89,0.00,,,0.01,WUHU216DAVISVP2,2013-11-05 05:36:00,
2013-11-04 21:41:00,44.1,41.0,30.08,WSW,240,0.0,2.0,89,0.00,,,0.01,WUHU216DAVISVP2,2013-11-05 05:41:00,
2013-11-04 21:46:00,44.0,40.9,30.08,WSW,240,0.0,2.0,89,0.00,,,0.01,WUHU216DAVISVP2,2013-11-05 05:46:00,
2013-11-04 21:51:00,43.9,40.8,30.07,WSW,240,0.0,2.0,89,0.01,,,0.02,WUHU216DAVISVP2,2013-11-05 05:51:00,
2013-11-04 21:56:00,43.8,40.7,30.07,WSW,240,0.0,0.0,89,0.01,,,0.02,WUHU216DAVISVP2,2013-11-05 05:56:00,
2013-11-04 22:01:00,43.8,41.0,30.07,WSW,240,0.0,0.0,90,0.01,,,0.02,WUHU216DAVISVP2,2013-11-05 06:01:00,
2013-11-04 22:06:00,43.6,40.8,30.06,WSW,240,0.0,0.0,90,0.01,,,0.02,WUHU216DAVISVP2,2013-11-05 06:06:00,
2013-11-04 22:11:00,43.6,40.8,30.06,WSW,240,0.0,0.0,90,0.01,,,0.02,WUHU216DAVISVP2,2013-11-05 06:11:00,
2013-11-04 22:16:00,43.5,41.0,30.06,WSW,240,0.0,0.0,91,0.01,,,0.02,WUHU216DAVISVP2,2013-11-05 06:16:00,
2013-11-04 22:21:00,43.4,40.9,30.06,WSW,240,0.0,0.0,91,0.01,,,0.02,WUHU216DAVISVP2,2013-11-05 06:21:00,
2013-11-04 22:26:00,43.4,40.9,30.05,NNE,26,0.0,0.0,91,0.01,,,0.02,WUHU216DAVISVP2,2013-11-05 06:26:00,
2013-11-04 22:31:00,43.5,41.0,30.05,NNE,26,0.0,1.0,91,0.01,,,0.02,WUHU216DAVISVP2,2013-11-05 06:31:00,
2013-11-04 22:36:00,43.5,41.0,30.06,NNE,26,0.0,1.0,91,0.01,,,0.02,WUHU216DAVISVP2,2013-11-05 06:36:00,
2013-11-04 22:41:00,43.5,41.3,30.06,NNE,26,0.0,3.0,92,0.01,,,0.02,WUHU216DAVISVP2,2013-11-05 06:41:00,
2013-11-04 22:46:00,43.5,41.3,30.05,NNE,26,0.0,3.0,92,0.01,,,0.02,WUHU216DAVISVP2,2013-11-05 06:46:00,
2013-11-04 22:51:00,43.5,41.3,30.05,NE,43,0.0,0.0,92,0.00,,,0.02,WUHU216DAVISVP2,2013-11-05 06:51:00,
2013-11-04 22:56:00,43.5,41.0,30.05,NE,43,0.0,0.0,91,0.00,,,0.02,WUHU216DAVISVP2,2013-11-05 06:56:00,
2013-11-04 23:01:00,43.6,41.1,30.05,NE,43,0.0,0.0,91,0.00,,,0.02,WUHU216DAVISVP2,2013-11-05 07:01:00,
2013-11-04 23:06:00,43.8,41.3,30.05,NE,43,0.0,1.0,91,0.00,,,0.02,WUHU216DAVISVP2,2013-11-05 07:06:00,
2013-11-04 23:11:00,43.8,41.6,30.05,NE,43,0.0,1.0,92,0.00,,,0.02,WUHU216DAVISVP2,2013-11-05 07:11:00,
2013-11-04 23:16:00,43.8,41.6,30.05,NE,43,0.0,1.0,92,0.00,,,0.02,WUHU216DAVISVP2,2013-11-05 07:16:00,
2013-11-04 23:21:00,43.8,41.6,30.05,NE,43,0.0,1.0,92,0.00,,,0.02,WUHU216DAVISVP2,2013-11-05 07:21:00,
2013-11-04 23:26:00,43.8,41.3,30.04,NE,43,1.0,1.0,91,0.00,,,0.02,WUHU216DAVISVP2,2013-11-05 07:26:00,
2013-11-04 23:31:00,43.9,41.4,30.04,NE,45,3.0,3.0,91,0.00,,,0.02,WUHU216DAVISVP2,2013-11-05 07:31:00,
2013-11-04 23:36:00,44.2,41.7,30.04,NE,46,0.0,3.0,91,0.00,,,0.02,WUHU216DAVISVP2,2013-11-05 07:36:00,
2013-11-04 23:41:00,44.3,41.5,30.04,NE,46,0.0,3.0,90,0.00,,,0.02,WUHU216DAVISVP2,2013-11-05 07:41:00,
2013-11-04 23:46:00,44.5,41.7,30.04,NE,53,0.0,1.0,90,0.00,,,0.02,WUHU216DAVISVP2,2013-11-05 07:46:00,
2013-11-04 23:51:00,44.5,42.0,30.04,SE,126,0.0,1.0,91,0.01,,,0.03,WUHU216DAVISVP2,2013-11-05 07:51:00,
2013-11-04 23:56:00,44.5,42.3,30.04,NE,53,0.0,2.0,92,0.01,,,0.03,WUHU216DAVISVP2,2013-11-05 07:56:00,